Regional Weather Roundup
Issued by NWS

Home | Current Version | Previous Version | Text Only | Print | Product List | Glossary On
Versions: 1 2 3 4 5 6 7 8 9 10 11 12 13 14 15 16 17 18 19 20 21 22 23 24 25 26 27 28 29 30 31 32 33 34 35 36 37 38 39 40 41 42 43 44 45 46 47 48 49 50
000
ASUS46 KSEW 252010
RWRWA

WASHINGTON REGIONAL WEATHER ROUNDUP
NATIONAL WEATHER SERVICE SEATTLE WA
1200 PM PST SUN FEB 25 2018

NOTE:"FAIR" INDICATES FEW OR NO CLOUDS BELOW 12,000 FEET WITH NO
SIGNIFICANT WEATHER AND/OR OBSTRUCTIONS TO VISIBILITY.

WAZ507-509-555>559-252100-
SEATTLE, TACOMA, EVERETT, AND VICINITY

CITY           SKY/WX    TMP DP  RH WIND       PRES   REMARKS
EVERETT        CLOUDY    39  28  64 VRB3      29.79F
BOEING FIELD   CLOUDY    44  36  73 W10       29.82R
RENTON         CLOUDY    44  35  70 W10       29.82S
SEATAC AIRPORT CLOUDY    42  34  73 SW17G25   29.80S
JBLM-MCCHORD   CLOUDY    41  37  84 SW14      29.84F
PUYALLUP       DRIZZLE   39  37  93 SW13G20   29.85S
BREMERTON      PTSUNNY   44  35  70 SW14      29.79S
JBLM-FT LEWIS  CLOUDY    40  39  96 S14G22    29.85S
TACOMA NARROWS CLOUDY    41  33  73 SW14G24   29.83S
$$

WAZ001-503-506-510-514-515-252100-
NORTH INTERIOR

CITY           SKY/WX    TMP DP  RH WIND       PRES   REMARKS
BELLINGHAM     MOSUNNY   44  30  57 SW9       29.74F
FRIDAY HARBOR  MOSUNNY   42  29  59 SW14G25   29.78S
EASTSOUND      MOSUNNY   45  32  61 SW10G16   29.74S
PORT ANGELES   CLOUDY    38  32  79 SW18G26   29.82R
EDIZ HOOK      CLOUDY    40  32  73 SW26G32   29.81F
PORT TOWNSEND  FAIR      45  30  57 W16G23    29.79R
NAS WHIDBEY    PTSUNNY   46  34  62 W25G32    29.82S
ARLINGTON      PTSUNNY   43  31  62 NW14G21   29.80F
BURLINGTON     MOSUNNY   45  34  65 SW12G24   29.78S
$$

WAZ020-022-039-040-504-511-512-252100-
SOUTHWEST INTERIOR

CITY           SKY/WX    TMP DP  RH WIND       PRES   REMARKS
SHELTON        CLOUDY    40  35  83 SW17G26   29.83R
OLYMPIA        LGT RAIN  38  35  89 SW6       29.88R
CHEHALIS       LGT RAIN  41  39  93 SW7       29.89F
KELSO          LGT RAIN  41  38  89 SW3       29.94F
VANCOUVER      LGT RAIN  45  40  82 W13G23    29.95S
SCAPPOOSE, OR  CLOUDY    43  39  86 S7        29.93F
PORTLAND, OR   LGT RAIN  46  39  76 SW16G26   29.95S
$$

WAZ021-516-517-252100-
WASHINGTON COAST

CITY           SKY/WX    TMP DP  RH WIND       PRES   REMARKS
FORKS          LGT SNOW  34  32  92 W7        29.87R FOG
HOQUIAM        CLOUDY    39  37  92 W3        29.88F
ASTORIA, OR    CLOUDY    43  38  82 W13G20    29.92F
$$

WAZ019-023-024-040-567>569-252100-
CASCADE MOUNTAINS AND COLUMBIA GORGE

CITY           SKY/WX    TMP DP  RH WIND       PRES   REMARKS
STAMPEDE PASS  NOT AVBL
TROUTDALE, OR  LGT RAIN  46  42  86 SW14      29.94F
HOOD RIVER, OR LGT RAIN  43  37  81 CALM      29.86F
THE DALLES, OR CLOUDY    50  36  58 W20       29.85F
$$

WAZ026-027-041>044-520-521-252100-
EAST SLOPES

CITY           SKY/WX    TMP DP  RH WIND       PRES   REMARKS
OMAK           CLOUDY    42  31  64 SE10      29.58F
WENATCHEE      CLOUDY    44  28  53 NW12G22   29.65F
ELLENSBURG     LGT RAIN  39  34  82 NW12      29.69F
YAKIMA         CLOUDY    51  31  46 W16G22    29.73S
SUNNYSIDE ARPT MOCLDY    50  29  45 SW26G35   29.76F
YAKIMA TC      FAIR      48  28  45 W18       29.69F
$$

WAZ028-034-035-252100-
COLUMBIA BASIN

CITY           SKY/WX    TMP DP  RH WIND       PRES   REMARKS
EPHRATA        CLOUDY    49  27  42 SW20G31   29.64F
MOSES LAKE     CLOUDY    49  29  46 SW18G32   29.67F
PASCO          PTSUNNY   50  33  52 SW30G43   29.80F
RICHLAND ARPT  MOCLDY    52  35  51 SW26G35   29.78F
HERMISTON, OR  CLOUDY    50  34  54 SW24G41   29.82F
$$

WAZ036>038-252100-
NORTHEAST WASHINGTON

CITY           SKY/WX    TMP DP  RH WIND       PRES   REMARKS
SPOKANE GEIGER CLOUDY    38  29  70 SW39G46   29.61F
SPOKANE FELTS  CLOUDY    40  28  62 SW24G36   29.65F
FAIRCHILD AFB  MOSUNNY   37  31  79 SW30G41   29.59F
COEURDALENE,ID CLOUDY    37  28  70 SW21G31   29.64F
DEER PARK      CLOUDY    37  28  70 SW17G30   29.64F
$$

WAZ029>033-252100-
SOUTHEAST WASHINGTON

CITY           SKY/WX    TMP DP  RH WIND       PRES   REMARKS
PULLMAN        CLOUDY    38  33  82 SW24G36   29.74F
LEWISTON, ID   CLOUDY    43  30  60 S33G44    29.77F
WALLA WALLA    CLOUDY    47  29  49 SW25G39   29.81F
PENDLETON, OR  CLOUDY    47  29  49 SW23G36   29.82F
$$



USA.gov is the U.S. government's official web portal to all federal, state and local government web resources and services.